{"data":{"norad_id":51877,"intl_designator":"2022-022AB","name":"STARLINK-3556","alt_names":[],"object_type":"PAYLOAD","status":"ACTIVE","operator":null,"country":"US","launch_date":"2022-03-03","launch_site_code":"AFETR","launch_vehicle":null,"mission":null,"orbit_class":"UNKNOWN","rcs_meters":null,"size_class":null,"mass_kg":null,"dimensions":null,"purposes":["comms"],"wikipedia_slug":null,"has_3d_model":false,"image_url":null,"decayed_at":null,"tle_current":{"epoch":"2026-05-25T00:44:04.428384Z","epoch_age_seconds":73179,"freshness":"FRESH","line1":"1 51877U 22022AB  26145.03060681  .00000179  00000+0  29359-4 0  9996","line2":"2 51877  53.2139  16.4113 0001295  81.9525 278.1614 15.08842525234778","mean_motion":15.08842525,"eccentricity":0.0001295,"inclination_deg":53.2139,"raan_deg":16.4113,"arg_perigee_deg":81.9525,"mean_anomaly_deg":278.1614,"bstar":2.9359e-5,"rev_number":23477,"period_min":95.437394966052,"perigee_km":538.83980654911,"apogee_km":540.63153557091,"semimajor_km":6917.87267106,"source":"CELESTRAK","updated_at":"2026-05-25T13:38:16.984620Z"}}}